Regional Weather Roundup
Issued by NWS

Home | Current Version | Previous Version | Graphics & Text | Print | Product List | Glossary On
Versions: 1 2 3 4 5 6 7 8 9 10 11 12 13 14 15 16 17 18 19 20 21 22 23 24 25 26 27 28 29 30 31 32 33 34 35 36 37 38 39 40 41 42 43 44 45 46 47 48 49 50
000
ASUS45 KPSR 291810
RWRAZ

ARIZONA REGIONAL HOURLY WEATHER ROUNDUP
NATIONAL WEATHER SERVICE PHOENIX AZ
1100 AM MST THU JAN 29 2015

NOTE: FAIR INDICATES FEW OR NO CLOUDS BELOW 12,000 FEET WITH NO
SIGNIFICANT WEATHER AND/OR OBSTRUCTIONS TO VISIBILITY.

AZZ001>003-036-291900-
NORTHWEST ARIZONA

CITY           SKY/WX    TMP DP  RH WIND       PRES   REMARKS
BULLHEAD CITY  CLOUDY    66  41  39 N18G28    30.13S
KINGMAN        CLOUDY    55  42  61 N5        30.19S
6HR MIN TEMP:  45; 6HR MAX TEMP:  55;

$$

AZZ004>008-015-016-018-291900-
NORTH CENTRAL ARIZONA

CITY           SKY/WX    TMP DP  RH WIND       PRES   REMARKS
GRAND CANYON   CLOUDY    45  30  55 E14       30.31R
6HR MIN TEMP:  40; 6HR MAX TEMP:  45;

PRESCOTT       CLOUDY    51  34  52 CALM      30.23S
6HR MIN TEMP:  39; 6HR MAX TEMP:  51;

FLAGSTAFF      CLOUDY    44  30  57 E10       30.32R
6HR MIN TEMP:  31; 6HR MAX TEMP:  44;

PAYSON         CLOUDY    55  32  41 CALM      30.25S
$$

AZZ009>014-017-291900-
NORTHEAST ARIZONA

CITY           SKY/WX    TMP DP  RH WIND       PRES   REMARKS
WINSLOW        CLOUDY    49  34  56 NE3       30.31S
6HR MIN TEMP:  39; 6HR MAX TEMP:  49;

SAINT JOHNS    CLOUDY    47  30  51 CALM      30.29R
6HR MIN TEMP:  32; 6HR MAX TEMP:  47;

WINDOW ROCK    CLOUDY    47  31  53 CALM      30.35S
6HR MIN TEMP:  32; 6HR MAX TEMP:  47;

SHOW LOW       CLOUDY    39  32  75 CALM      30.33S
$$

AZZ023-291900-
GREATER PHOENIX AREA

CITY           SKY/WX    TMP DP  RH WIND       PRES   REMARKS
PHOENIX        CLOUDY    66  47  50 CALM      30.08R
6HR MIN TEMP:  58; 6HR MAX TEMP:  66;

BUCKEYE          N/A     61  57  88 SW3       30.10S
GLENDALE       CLOUDY    64  52  63 CALM      30.10S
LUKE AFB       NOT AVBL
6HR MIN TEMP:  53; 6HR MAX TEMP:  64;

DEER VALLEY    CLOUDY    63  47  55 SW3       30.09R
6HR MIN TEMP:  54; 6HR MAX TEMP:  63;

SCOTTSDALE     CLOUDY    64  46  52 CALM      30.10R
6HR MIN TEMP:  56; 6HR MAX TEMP:  64;

MESA-FALCON    CLOUDY    63  39  42 N6        30.09R
MESA-GATEWAY   PTSUNNY   63  54  72 CALM      30.12R
CHANDLER       CLOUDY    63  54  72 NE5       30.10R
$$

AZZ027-028-291900-
SOUTHWEST MARICOPA COUNTY AND PINAL COUNTY

CITY           SKY/WX    TMP DP  RH WIND       PRES   REMARKS
CASA GRANDE    CLOUDY    63  50  63 CALM      30.10S
6HR MIN TEMP:  52; 6HR MAX TEMP:  63;

GILA BEND      MOCLDY    62  53  74 NE1       30.09S
6HR MIN TEMP:  53; 6HR MAX TEMP:  62;

$$

AZZ503-504-507>509-291900-
SOUTHEAST ARIZONA

CITY           SKY/WX    TMP DP  RH WIND       PRES   REMARKS
TUCSON         CLOUDY    64  45  49 S5        30.12S
6HR MIN TEMP:  52; 6HR MAX TEMP:  64;

DAVIS-MONTHAN  CLOUDY    67  41  39 W8        30.09F
6HR MIN TEMP:  53; 6HR MAX TEMP:  67;

RYAN FIELD       N/A     64  48  55 E8        30.12S
NOGALES        CLOUDY    60  45  57 SW7       30.15F
6HR MIN TEMP:  46; 6HR MAX TEMP:  63; 6HR PCP: TRACE;

SIERRA VISTA   CLOUDY    61  36  39 SE9       30.22S
                                      6HR PCP: TRACE;

DOUGLAS        CLOUDY    56  34  43 N5        30.23S
6HR MIN TEMP:  38; 6HR MAX TEMP:  56;

SAFFORD        CLOUDY    59  36  42 SE10      30.21R
6HR MIN TEMP:  49; 6HR MAX TEMP:  59;

$$

AZZ020-021-025-026-031-291900-
SOUTHWEST ARIZONA

CITY           SKY/WX    TMP DP  RH WIND       PRES   REMARKS
YUMA           CLOUDY    68  48  48 N8        30.08R
6HR MIN TEMP:  61; 6HR MAX TEMP:  68;

$$

CAZ031-033-041-043-047-048-061-291900-
SOUTHERN CALIFORNIA

CITY           SKY/WX    TMP DP  RH WIND       PRES   REMARKS
DOWNTOWN L.A.  CLOUDY    68  43  40 CALM      30.06R
6HR MIN TEMP:  60; 6HR MAX TEMP:  68;

L.A. AIRPORT   CLOUDY    67  44  43 E5        30.07R
6HR MIN TEMP:  59; 6HR MAX TEMP:  67;

SAN DIEGO      CLOUDY    67  47  48 CALM      30.08R
6HR MIN TEMP:  60; 6HR MAX TEMP:  68;

BURBANK        CLOUDY    64  43  46 CALM      30.07R
6HR MIN TEMP:  57; 6HR MAX TEMP:  65;

ONTARIO        CLOUDY    66  47  50 CALM      30.08R
6HR MIN TEMP:  54; 6HR MAX TEMP:  67;

RIVERSIDE      CLOUDY    69  42  37 E7        30.09R
6HR MIN TEMP:  60; 6HR MAX TEMP:  70;

PALM SPRINGS   CLOUDY    72  41  32 W3        30.11S
6HR MIN TEMP:  61; 6HR MAX TEMP:  72;

EL CENTRO NAS  CLOUDY    68  52  56 W5        30.08R
6HR MIN TEMP:  57; 6HR MAX TEMP:  68;

IMPERIAL       CLOUDY    67  48  50 E3        30.08R
6HR MIN TEMP:  56; 6HR MAX TEMP:  67;

BLYTHE         CLOUDY    63  49  60 CALM      30.09F
6HR MIN TEMP:  57; 6HR MAX TEMP:  63;

NEEDLES        CLOUDY    66  43  43 N12       30.12S
6HR MIN TEMP:  60; 6HR MAX TEMP:  66;

$$

NVZ020-UTZ003-291900-
SOUTHERN NEVADA-UTAH

CITY           SKY/WX    TMP DP  RH WIND       PRES   REMARKS
LAS VEGAS      CLOUDY    58  42  55 S10       30.17R
6HR MIN TEMP:  54; 6HR MAX TEMP:  59;

SALT LAKE CITY FOG       38  34  85 N6        30.37R VSB 1/2 WCI  33
6HR MIN TEMP:  28; 6HR MAX TEMP:  39;

$$

NMZ009-TXZ055-291900-
NEW MEXICO-WEST TEXAS

CITY           SKY/WX    TMP DP  RH WIND       PRES   REMARKS
ALBUQUERQUE    CLOUDY    51  27  39 E29G38    30.41R
6HR MIN TEMP:  42; 6HR MAX TEMP:  51;

EL PASO        CLOUDY    60  34  37 NE10      30.31R
6HR MIN TEMP:  47; 6HR MAX TEMP:  60;

$$


........................KEY........................
SKY/WX - SKY CONDITION/WEATHER
TMP    - TEMPERATURE IN FAHRENHEIT
DP     - DEW POINT IN FAHRENHEIT
RH     - RELATIVE HUMIDITY IN PERCENT
WIND   - DIRECTION AND SPEED IN MILES PER HOUR (MPH)
VRB    - VARIABLE WIND DIRECTION
PRES   - MEAN SEA LEVEL PRESSURE IN INCHES OF MERCURY
         F - FALLING PRESSURE   R - RISING PRESSURE
         S - STEADY PRESSURE
VSB    - VISIBILITY IN MILES
HX     - HEAT INDEX IN FAHRENHEIT
WCI    - WIND CHILL INDEX IN FAHRENHEIT
TC     - TEMPERATURE IN CELSIUS WHICH IS ALSO KNOWN AS
         TEMPERATURE IN CENTIGRADE
AFB    - AIR FORCE BASE
         LUKE AFB IS LUKE AIR FORCE BASE
         DAVIS-MONTHAN IS DAVIS-MONTHAN AIR FORCE BASE
NAS    - NAVAL AIR STATION
         EL CENTRO NAS IS EL CENTRO NAVAL AIR STATION
N/A    - NOT AVAILABLE


USA.gov is the U.S. government's official web portal to all federal, state and local government web resources and services.